Simultaneous Nadir Overpasses (SNOs) Predictions

Prediction of SNOs between GOES-16 and NOAA-19 Satellite Orbit:

Table of predicted SNOs for the next 14.0 days since TLE Epoch: 3/29/2019
Index Date Time (GOES-16) GOES-16 Lat,Lon NOAA-19 Lat,Lon Distance(km) Time Diff (sec)
1 03/31/2019 21:51:19 0.01, -75.19 -0.42, -76.94 199.37 80
2 04/01/2019 21:42:23 0.01, -75.20 0.24, -74.10 124.53 80
3 04/02/2019 21:30:48 0.01, -75.20 0.95, -71.28 448.52 80
4 04/04/2019 10:03:35 -0.01, -75.22 0.89, -79.13 446.00 80
5 04/05/2019 09:51:58 -0.01, -75.22 0.22, -76.29 121.60 80
6 04/06/2019 09:37:42 -0.01, -75.23 -0.45, -73.46 202.96 80
7 04/08/2019 21:58:54 0.01, -75.25 -0.72, -78.48 368.00 80
8 04/09/2019 21:47:17 0.01, -75.26 -0.06, -75.64 43.41 80
9 04/10/2019 21:38:21 0.00, -75.27 0.60, -72.81 281.34 80




NCC Satellite Simultaneous Nadir Overpasses (SNOs) Prediction Service
